Time,TemperatureF,DewpointF,PressureIn,WindDirection,WindDirectionDegrees,WindSpeedMPH,WindSpeedGustMPH,Humidity,HourlyPrecipIn,Conditions,Clouds,dailyrainin,SoftwareType,DateUTC
2013-02-21 00:10:00,65.0,62.0,29.55,SSE,148,3.0,7.0,89,0.00,,,0.02,weatherlink.com 1.10,2013-02-21 06:10:00,
2013-02-21 00:25:00,65.8,62.0,29.56,South,172,6.0,10.0,87,0.00,,,0.02,weatherlink.com 1.10,2013-02-21 06:25:00,
2013-02-21 00:40:00,66.3,62.0,29.56,South,172,3.0,6.0,86,0.00,,,0.02,weatherlink.com 1.10,2013-02-21 06:40:00,
2013-02-21 00:55:00,67.0,62.0,29.55,SSE,155,4.0,11.0,84,0.00,,,0.02,weatherlink.com 1.10,2013-02-21 06:55:00,
2013-02-21 01:10:00,67.2,62.0,29.56,SSE,156,3.0,14.0,83,0.00,,,0.02,weatherlink.com 1.10,2013-02-21 07:10:00,
2013-02-21 01:25:00,67.3,62.0,29.56,South,176,0.0,9.0,83,0.00,,,0.02,weatherlink.com 1.10,2013-02-21 07:25:00,
2013-02-21 01:40:00,67.4,62.0,29.55,South,175,2.0,6.0,83,0.00,,,0.02,weatherlink.com 1.10,2013-02-21 07:40:00,
2013-02-21 01:55:00,67.6,62.0,29.56,SSE,159,4.0,13.0,82,0.00,,,0.02,weatherlink.com 1.10,2013-02-21 07:55:00,
2013-02-21 02:10:00,67.5,62.0,29.54,South,176,7.0,11.0,82,0.00,,,0.02,weatherlink.com 1.10,2013-02-21 08:10:00,
2013-02-21 02:25:00,67.5,62.0,29.53,SE,139,8.0,14.0,82,0.00,,,0.02,weatherlink.com 1.10,2013-02-21 08:25:00,
2013-02-21 02:40:00,67.5,62.0,29.53,SE,144,6.0,14.0,83,0.00,,,0.02,weatherlink.com 1.10,2013-02-21 08:40:00,
2013-02-21 02:55:00,67.4,62.0,29.52,SSE,165,5.0,11.0,83,0.00,,,0.00,weatherlink.com 1.10,2013-02-21 08:55:00,
2013-02-21 03:10:00,67.4,62.0,29.51,South,181,5.0,11.0,83,0.00,,,0.00,weatherlink.com 1.10,2013-02-21 09:10:00,
2013-02-21 03:25:00,67.5,63.0,29.50,SSE,156,8.0,14.0,84,0.00,,,0.00,weatherlink.com 1.10,2013-02-21 09:25:00,
2013-02-21 03:40:00,67.5,63.0,29.50,SSE,165,4.0,11.0,84,0.00,,,0.00,weatherlink.com 1.10,2013-02-21 09:40:00,
2013-02-21 03:55:00,67.5,63.0,29.50,South,188,2.0,10.0,84,0.00,,,0.00,weatherlink.com 1.10,2013-02-21 09:55:00,
2013-02-21 04:10:00,67.5,63.0,29.49,South,180,5.0,13.0,84,0.00,,,0.00,weatherlink.com 1.10,2013-02-21 10:10:00,
2013-02-21 04:25:00,67.2,63.0,29.48,SSE,148,9.0,13.0,85,0.00,,,0.00,weatherlink.com 1.10,2013-02-21 10:25:00,
2013-02-21 04:41:00,67.1,63.0,29.50,SSW,204,6.0,11.0,85,0.00,,,0.00,weatherlink.com 1.10,2013-02-21 10:41:00,
2013-02-21 04:55:00,67.0,62.0,29.51,SSW,211,5.0,9.0,85,0.00,,,0.00,weatherlink.com 1.10,2013-02-21 10:55:00,
2013-02-21 05:11:00,67.1,63.0,29.51,SW,227,8.0,10.0,85,0.00,,,0.00,weatherlink.com 1.10,2013-02-21 11:11:00,
2013-02-21 05:25:00,67.1,63.0,29.53,SSW,194,6.0,13.0,85,0.00,,,0.00,weatherlink.com 1.10,2013-02-21 11:25:00,
2013-02-21 05:40:00,66.8,62.0,29.54,NW,314,0.0,8.0,85,0.00,,,0.00,weatherlink.com 1.10,2013-02-21 11:40:00,
2013-02-21 05:55:00,66.4,62.0,29.55,NW,314,0.0,2.0,86,0.00,,,0.00,weatherlink.com 1.10,2013-02-21 11:55:00,
2013-02-21 06:10:00,65.4,61.0,29.55,NW,314,0.0,3.0,86,0.00,,,0.00,weatherlink.com 1.10,2013-02-21 12:10:00,
2013-02-21 06:26:00,63.7,52.0,29.60,NW,315,10.0,11.0,67,0.01,,,0.01,weatherlink.com 1.10,2013-02-21 12:26:00,
2013-02-21 06:41:00,61.2,50.0,29.62,NW,306,2.0,10.0,66,0.01,,,0.01,weatherlink.com 1.10,2013-02-21 12:41:00,
2013-02-21 06:56:00,59.2,48.0,29.64,NNW,333,6.0,9.0,67,0.01,,,0.01,weatherlink.com 1.10,2013-02-21 12:56:00,
2013-02-21 07:11:00,58.1,45.0,29.66,West,269,7.0,15.0,61,0.01,,,0.01,weatherlink.com 1.10,2013-02-21 13:11:00,
2013-02-21 07:26:00,56.4,44.0,29.68,WNW,287,3.0,12.0,63,0.00,,,0.01,weatherlink.com 1.10,2013-02-21 13:26:00,
2013-02-21 07:41:00,55.6,43.0,29.69,WNW,283,2.0,9.0,63,0.00,,,0.01,weatherlink.com 1.10,2013-02-21 13:41:00,
2013-02-21 07:56:00,55.6,42.0,29.70,West,271,6.0,15.0,60,0.00,,,0.01,weatherlink.com 1.10,2013-02-21 13:56:00,
2013-02-21 08:11:00,56.1,40.0,29.71,West,276,0.0,13.0,56,0.00,,,0.01,weatherlink.com 1.10,2013-02-21 14:11:00,
2013-02-21 08:26:00,56.6,40.0,29.72,WNW,302,4.0,9.0,55,0.00,,,0.01,weatherlink.com 1.10,2013-02-21 14:26:00,
2013-02-21 08:41:00,57.3,40.0,29.73,WNW,298,4.0,13.0,52,0.00,,,0.01,weatherlink.com 1.10,2013-02-21 14:41:00,
2013-02-21 08:56:00,57.8,39.0,29.74,NW,317,0.0,15.0,49,0.00,,,0.01,weatherlink.com 1.10,2013-02-21 14:56:00,
2013-02-21 09:11:00,58.6,38.0,29.74,NNW,335,2.0,13.0,47,0.00,,,0.01,weatherlink.com 1.10,2013-02-21 15:11:00,
2013-02-21 09:26:00,59.2,36.0,29.74,North,355,2.0,19.0,42,0.00,,,0.01,weatherlink.com 1.10,2013-02-21 15:26:00,
2013-02-21 09:41:00,60.2,36.0,29.75,North,349,3.0,14.0,40,0.00,,,0.01,weatherlink.com 1.10,2013-02-21 15:41:00,
2013-02-21 09:56:00,60.7,31.0,29.75,WNW,290,4.0,14.0,33,0.00,,,0.01,weatherlink.com 1.10,2013-02-21 15:56:00,
2013-02-21 10:11:00,61.7,32.0,29.76,NW,304,9.0,11.0,33,0.00,,,0.01,weatherlink.com 1.10,2013-02-21 16:11:00,
2013-02-21 10:26:00,61.4,32.0,29.75,NW,312,5.0,16.0,33,0.00,,,0.01,weatherlink.com 1.10,2013-02-21 16:26:00,
2013-02-21 10:42:00,61.9,31.0,29.75,NW,305,2.0,25.0,31,0.00,,,0.01,weatherlink.com 1.10,2013-02-21 16:42:00,
2013-02-21 10:57:00,62.5,31.0,29.75,WNW,292,7.0,14.0,31,0.00,,,0.01,weatherlink.com 1.10,2013-02-21 16:57:00,
2013-02-21 11:11:00,63.7,32.0,29.75,West,280,3.0,15.0,30,0.00,,,0.01,weatherlink.com 1.10,2013-02-21 17:11:00,
2013-02-21 11:26:00,64.3,30.0,29.74,West,275,4.0,16.0,28,0.00,,,0.01,weatherlink.com 1.10,2013-02-21 17:26:00,
2013-02-21 11:42:00,65.2,29.0,29.74,NW,304,5.0,14.0,26,0.00,,,0.01,weatherlink.com 1.10,2013-02-21 17:42:00,
2013-02-21 11:56:00,65.6,31.0,29.73,WNW,299,4.0,21.0,27,0.00,,,0.01,weatherlink.com 1.10,2013-02-21 17:56:00,
2013-02-21 12:11:00,66.1,30.0,29.73,West,281,7.0,13.0,26,0.00,,,0.01,weatherlink.com 1.10,2013-02-21 18:11:00,
2013-02-21 12:26:00,66.5,30.0,29.72,WSW,238,8.0,18.0,26,0.00,,,0.01,weatherlink.com 1.10,2013-02-21 18:26:00,
2013-02-21 12:42:00,67.7,31.0,29.71,NW,313,3.0,15.0,25,0.00,,,0.01,weatherlink.com 1.10,2013-02-21 18:42:00,
2013-02-21 12:56:00,68.5,30.0,29.70,WNW,288,4.0,18.0,24,0.00,,,0.01,weatherlink.com 1.10,2013-02-21 18:56:00,
2013-02-21 13:11:00,69.3,31.0,29.69,NW,311,4.0,18.0,24,0.00,,,0.01,weatherlink.com 1.10,2013-02-21 19:11:00,
2013-02-21 13:26:00,70.4,29.0,29.68,NW,321,5.0,15.0,21,0.00,,,0.01,weatherlink.com 1.10,2013-02-21 19:26:00,
2013-02-21 13:42:00,71.4,28.0,29.68,WNW,295,7.0,18.0,20,0.00,,,0.01,weatherlink.com 1.10,2013-02-21 19:42:00,
2013-02-21 13:57:00,72.1,23.0,29.67,West,260,6.0,19.0,16,0.00,,,0.01,weatherlink.com 1.10,2013-02-21 19:57:00,
2013-02-21 14:12:00,71.7,22.0,29.67,WSW,253,6.0,17.0,15,0.00,,,0.01,weatherlink.com 1.10,2013-02-21 20:12:00,
2013-02-21 14:27:00,72.2,22.0,29.66,WSW,250,5.0,18.0,15,0.00,,,0.01,weatherlink.com 1.10,2013-02-21 20:27:00,
2013-02-21 14:42:00,72.7,24.0,29.66,WSW,248,7.0,16.0,16,0.00,,,0.01,weatherlink.com 1.10,2013-02-21 20:42:00,
2013-02-21 14:57:00,72.3,20.0,29.66,WSW,251,7.0,17.0,14,0.00,,,0.01,weatherlink.com 1.10,2013-02-21 20:57:00,
2013-02-21 15:12:00,72.8,19.0,29.66,WNW,290,3.0,13.0,13,0.00,,,0.01,weatherlink.com 1.10,2013-02-21 21:12:00,
2013-02-21 15:27:00,72.0,18.0,29.66,NW,306,3.0,18.0,13,0.00,,,0.01,weatherlink.com 1.10,2013-02-21 21:27:00,
2013-02-21 15:42:00,72.7,21.0,29.67,WNW,282,5.0,12.0,14,0.00,,,0.01,weatherlink.com 1.10,2013-02-21 21:42:00,
2013-02-21 15:57:00,72.0,20.0,29.67,NW,318,8.0,18.0,14,0.00,,,0.01,weatherlink.com 1.10,2013-02-21 21:57:00,
2013-02-21 16:12:00,72.5,22.0,29.67,NW,306,4.0,13.0,15,0.00,,,0.01,weatherlink.com 1.10,2013-02-21 22:12:00,
2013-02-21 16:27:00,72.6,21.0,29.67,NW,325,4.0,17.0,14,0.00,,,0.01,weatherlink.com 1.10,2013-02-21 22:27:00,
2013-02-21 16:42:00,72.7,21.0,29.68,WNW,294,10.0,15.0,14,0.00,,,0.01,weatherlink.com 1.10,2013-02-21 22:42:00,
2013-02-21 16:57:00,72.4,20.0,29.68,NW,320,4.0,10.0,14,0.00,,,0.01,weatherlink.com 1.10,2013-02-21 22:57:00,
2013-02-21 17:12:00,71.9,18.0,29.68,West,278,1.0,15.0,13,0.00,,,0.01,weatherlink.com 1.10,2013-02-21 23:12:00,
2013-02-21 17:27:00,70.9,19.0,29.69,NW,317,3.0,11.0,14,0.00,,,0.01,weatherlink.com 1.10,2013-02-21 23:27:00,
2013-02-21 17:42:00,70.2,19.0,29.69,NW,314,5.0,11.0,14,0.00,,,0.01,weatherlink.com 1.10,2013-02-21 23:42:00,
2013-02-21 17:57:00,69.8,20.0,29.69,West,278,0.0,8.0,15,0.00,,,0.01,weatherlink.com 1.10,2013-02-21 23:57:00,
2013-02-21 18:12:00,68.3,20.0,29.70,WNW,302,3.0,5.0,16,0.00,,,0.01,weatherlink.com 1.10,2013-02-22 00:12:00,
2013-02-21 18:27:00,66.6,20.0,29.71,WNW,300,0.0,4.0,17,0.00,,,0.01,weatherlink.com 1.10,2013-02-22 00:27:00,
2013-02-21 18:42:00,64.8,21.0,29.72,WNW,300,0.0,0.0,19,0.00,,,0.01,weatherlink.com 1.10,2013-02-22 00:42:00,
2013-02-21 18:57:00,62.3,22.0,29.73,WNW,300,0.0,0.0,21,0.00,,,0.01,weatherlink.com 1.10,2013-02-22 00:57:00,
2013-02-21 19:12:00,60.1,24.0,29.73,WNW,300,0.0,0.0,25,0.00,,,0.01,weatherlink.com 1.10,2013-02-22 01:12:00,
2013-02-21 19:27:00,58.2,24.0,29.74,WNW,300,0.0,0.0,27,0.00,,,0.01,weatherlink.com 1.10,2013-02-22 01:27:00,
2013-02-21 19:42:00,57.4,22.0,29.74,WNW,300,0.0,1.0,25,0.00,,,0.01,weatherlink.com 1.10,2013-02-22 01:42:00,
2013-02-21 19:57:00,56.3,23.0,29.75,WNW,300,0.0,0.0,27,0.00,,,0.01,weatherlink.com 1.10,2013-02-22 01:57:00,
2013-02-21 20:12:00,55.4,24.0,29.76,WNW,300,0.0,2.0,30,0.00,,,0.01,weatherlink.com 1.10,2013-02-22 02:12:00,
2013-02-21 20:27:00,54.7,23.0,29.76,WNW,300,0.0,0.0,29,0.00,,,0.01,weatherlink.com 1.10,2013-02-22 02:27:00,
2013-02-21 20:42:00,54.0,24.0,29.77,WNW,300,0.0,1.0,31,0.00,,,0.01,weatherlink.com 1.10,2013-02-22 02:42:00,
2013-02-21 20:57:00,53.2,24.0,29.77,WNW,300,0.0,0.0,32,0.00,,,0.01,weatherlink.com 1.10,2013-02-22 02:57:00,
2013-02-21 21:12:00,51.9,25.0,29.78,WNW,300,0.0,2.0,35,0.00,,,0.01,weatherlink.com 1.10,2013-02-22 03:12:00,
2013-02-21 21:27:00,51.0,23.0,29.78,WNW,300,0.0,0.0,34,0.00,,,0.01,weatherlink.com 1.10,2013-02-22 03:27:00,
2013-02-21 21:42:00,52.1,24.0,29.78,WNW,300,0.0,0.0,33,0.00,,,0.01,weatherlink.com 1.10,2013-02-22 03:42:00,
2013-02-21 21:57:00,50.8,25.0,29.78,WNW,300,0.0,2.0,37,0.00,,,0.01,weatherlink.com 1.10,2013-02-22 03:57:00,
2013-02-21 22:12:00,47.8,24.0,29.78,WNW,300,0.0,1.0,40,0.00,,,0.01,weatherlink.com 1.10,2013-02-22 04:12:00,
2013-02-21 22:42:00,47.3,24.0,29.79,WNW,300,0.0,1.0,40,0.00,,,0.01,weatherlink.com 1.10,2013-02-22 04:42:00,
2013-02-21 22:58:00,46.6,24.0,29.79,WNW,300,0.0,0.0,42,0.00,,,0.01,weatherlink.com 1.10,2013-02-22 04:58:00,
2013-02-21 23:12:00,45.7,25.0,29.79,WNW,300,0.0,4.0,44,0.00,,,0.01,weatherlink.com 1.10,2013-02-22 05:12:00,
2013-02-21 23:27:00,45.2,26.0,29.79,WNW,300,0.0,0.0,47,0.00,,,0.01,weatherlink.com 1.10,2013-02-22 05:27:00,
2013-02-21 23:42:00,44.4,26.0,29.76,WNW,300,5.0,5.0,48,0.00,,,0.01,weatherlink.com 1.10,2013-02-22 05:42:00,
2013-02-21 23:58:00,43.9,26.0,29.76,NW,319,0.0,1.0,50,0.00,,,0.01,weatherlink.com 1.10,2013-02-22 05:58:00,